Mumbai, India

4:55 PM IST on February 21, 2017 (GMT +0530)
Chhatrapati Shivaji International

Weather History for VABB - January, 2014

Change the Weather History Date:

Friday, January 10, 2014

  Actual Average Record
Temperature  
Mean Temperature 72 °F -  
Max Temperature 83 °F 86 °F 95 °F (2002)
Min Temperature 60 °F 67 °F 56 °F (2017)
Cooling Degree Days 6    
Growing Degree Days 22 (Base 50)    
Moisture  
Dew Point 55 °F    
Average Humidity 53    
Maximum Humidity 82    
Minimum Humidity 21    
Precipitation  
Precipitation 0.00 in - - ()
Sea Level Pressure  
Sea Level Pressure 29.93 in    
Wind  
Wind Speed 4 mph ()    
Max Wind Speed 12 mph    
Max Gust Speed -    
Visibility 1.5 miles    
Events      
Averages and records for this station are not official NWS values.
T = Trace of Precipitation, MM = Missing Value Source: Averaged Metar Reports

Daily Weather History Graph

Daily Weather History Graph

Search for Another Location

Airport or City:

Trip Planner

Search our weather history database for the weather conditions in past years. The results will help you decide how hot, cold, wet, or windy it might be!

Date:

Astronomy

Jan. 10, 2014 Rise Set
Actual Time 7:14 AM IST 6:17 PM IST
Civil Twilight 6:50 AM IST 6:41 PM IST
Nautical Twilight 6:23 AM IST 7:08 PM IST
Astronomical Twilight 5:56 AM IST 7:35 PM IST
Moon 1:51 PM IST (1/10) 2:10 AM IST (1/10)
Length of Visible Light 11h 50m
Length of Day
11h 03m
Waxing Gibbous, 71% of the Moon is Illuminated
Jan 10
Waxing Gibbous
Jan 16
Full
Jan 24
Last Quarter
Jan 31
New
Feb 7
First Quarter

Hourly Weather History & Observations

Time (IST) Temp. Dew Point Humidity Pressure Visibility Wind Dir Wind Speed Gust Speed Precip Events Conditions
12:10 AM 73.4 °F 62.6 °F 69% 29.92 in 1.1 mi NW 4.6 mph - N/A   Haze
12:40 AM 71.6 °F 62.6 °F 73% 29.92 in 1.1 mi NNE 3.5 mph - N/A   Haze
1:10 AM 71.6 °F 57.2 °F 60% 29.89 in 1.3 mi NNW 5.8 mph - N/A   Haze
2:10 AM 71.6 °F 53.6 °F 53% 29.89 in 1.6 mi NNE 5.8 mph - N/A   Smoke
3:10 AM 69.8 °F 53.6 °F 56% 29.89 in 1.9 mi NE 6.9 mph - N/A   Smoke
3:40 AM 71.6 °F 53.6 °F 53% 29.86 in 1.9 mi NNW 4.6 mph - N/A   Smoke
4:40 AM 68.0 °F 57.2 °F 68% 29.86 in 1.4 mi Calm Calm - N/A   Haze
5:10 AM 69.8 °F 57.2 °F 64% 29.89 in 1.3 mi Calm Calm - N/A   Haze
5:30 AM 63 °F 56 °F 72% 29.88 in 1 mi Calm Calm - -   Haze
5:40 AM 68.0 °F 59.0 °F 73% 29.89 in 1.1 mi Calm Calm - N/A   Haze
6:10 AM 68.0 °F 59.0 °F 73% 29.89 in 1.1 mi SSE 4.6 mph - N/A   Haze
6:40 AM 68.0 °F 57.2 °F 68% 29.92 in 1.1 mi Calm Calm - N/A   Haze
7:10 AM 66.2 °F 57.2 °F 73% 29.92 in 1.1 mi SW 4.6 mph - N/A   Haze
7:40 AM 68.0 °F 57.2 °F 68% 29.92 in 1.1 mi Calm Calm - N/A   Haze
8:10 AM 68.0 °F 57.2 °F 68% 29.95 in 1.1 mi Calm Calm - N/A   Haze
8:30 AM 62 °F 58 °F 82% 29.96 in 1 mi Calm Calm - -   Haze
8:40 AM 69.8 °F 59.0 °F 68% 29.98 in 1.1 mi Calm Calm - N/A   Haze
9:10 AM 71.6 °F 55.4 °F 57% 29.98 in 1.1 mi Calm Calm - N/A   Smoke
10:10 AM 75.2 °F 55.4 °F 50% 29.98 in 1.1 mi Calm Calm - N/A   Smoke
10:40 AM 77.0 °F 53.6 °F 44% 29.98 in 1.1 mi Calm Calm - N/A   Smoke
11:10 AM 78.8 °F 51.8 °F 39% 29.98 in 1.4 mi NW 3.5 mph - N/A   Smoke
11:30 AM 79 °F 50 °F 25% 29.97 in 1 mi North 4.6 mph - -   Smoke
11:40 AM 78.8 °F 50.0 °F 36% 29.98 in 1.6 mi WNW 5.8 mph - N/A   Smoke
12:10 PM 80.6 °F 48.2 °F 32% 29.95 in 1.6 mi WNW 5.8 mph - N/A   Smoke
2:30 PM 82 °F 49 °F 21% 29.91 in 1 mi NNW 6.9 mph - -   Smoke
2:40 PM 82.4 °F 50.0 °F 32% 29.89 in 1.9 mi West 11.5 mph - N/A   Smoke
3:10 PM 80.6 °F 48.2 °F 32% 29.89 in 1.9 mi NW 10.4 mph - N/A   Smoke
3:40 PM 82.4 °F 50.0 °F 32% 29.89 in 1.9 mi NW 9.2 mph - N/A   Smoke
4:10 PM 80.6 °F 50.0 °F 34% 29.89 in 1.9 mi WNW 6.9 mph - N/A   Smoke
5:10 PM 77.0 °F 55.4 °F 47% 29.89 in 1.9 mi NW 10.4 mph - N/A   Smoke
5:30 PM 77 °F 57 °F 39% 29.91 in 1 mi NW 6.9 mph - -   Smoke
5:40 PM 75.2 °F 57.2 °F 53% 29.92 in 1.9 mi NW 10.4 mph - N/A   Smoke
6:10 PM 73.4 °F 59.0 °F 61% 29.92 in 1.9 mi NW 11.5 mph - N/A   Smoke
6:40 PM 73.4 °F 59.0 °F 61% 29.92 in 1.7 mi NNW 8.1 mph - N/A   Smoke
7:10 PM 73.4 °F 55.4 °F 53% 29.95 in 1.7 mi NNW 8.1 mph - N/A   Smoke
7:40 PM 73.4 °F 55.4 °F 53% 29.95 in 1.7 mi NNW 8.1 mph - N/A   Smoke
8:10 PM 73.4 °F 55.4 °F 53% 29.98 in 1.7 mi NNE 9.2 mph - N/A   Smoke
8:30 PM 72 °F 54 °F 44% 29.97 in 1 mi NNE 5.8 mph - -   Smoke
8:40 PM 71.6 °F 53.6 °F 53% 29.98 in 1.7 mi NNW 9.2 mph - N/A   Smoke
9:40 PM 71.6 °F 53.6 °F 53% 29.98 in 1.9 mi NE 4.6 mph - N/A   Smoke
10:10 PM 69.8 °F 53.6 °F 56% 29.98 in 1.9 mi NNE 3.5 mph - N/A   Smoke
10:40 PM 71.6 °F 51.8 °F 50% 29.98 in 1.9 mi North 4.6 mph - N/A   Smoke
11:10 PM 71.6 °F 50.0 °F 46% 29.98 in 1.9 mi North 6.9 mph - N/A   Smoke
11:30 PM 67 °F 54 °F 53% 29.99 in 1 mi North 3.5 mph - -   Smoke
11:40 PM 69.8 °F 50.0 °F 49% 29.98 in 1.9 mi NNW 4.6 mph - N/A   Smoke